Location: Unspecified
(20.0000°S, 0.0000°E)
Time: 07:34:06
(UTC+00:00)

BEESAT - Pass Details

Date: 25 August 2019
Orbit: 700 x 709 km, 98.6° (Epoch: 16 October)

Event Time Altitude Azimuth Distance (km) Brightness Sun altitude
Rises 04:41:42 0° 160° (SSE) 3,104 ? -22.5°
Reaches altitude 10° 04:44:01 10° 155° (SSE) 2,179 ? -21.9°
Maximum altitude 04:48:40 51° 79° (E) 879 ? -20.8°
Drops below altitude 10° 04:53:16 10° 3° (N) 2,158 ? -19.8°
Sets 04:55:33 0° 358° (N) 3,070 ? -19.2°
